Pope AFB, NC

11:39 AM EST on February 25, 2017 (GMT -0500)
Pope Field Airport

Weather History for KPOB - February, 2014

Change the Weather History Date:

Sunday, February 2, 2014

  Actual Average Record
Temperature  
Mean Temperature 52 °F -  
Max Temperature 63 °F 58 °F 80 °F (1989)
Min Temperature 42 °F 35 °F 18 °F (2013)
Degree Days  
Heating Degree Days 12    
Growing Degree Days 2 (Base 50)    
Moisture  
Dew Point 45 °F    
Average Humidity 94    
Maximum Humidity 100    
Minimum Humidity 61    
Precipitation  
Precipitation 0.00 in - - ()
Sea Level Pressure  
Sea Level Pressure 30.09 in    
Wind  
Wind Speed 5 mph (WSW)    
Max Wind Speed 13 mph    
Max Gust Speed 17 mph    
Visibility 5 miles    
Events Fog    
Averages and records for this station are not official NWS values.
T = Trace of Precipitation, MM = Missing Value Source: NWS Daily Summary

Daily Weather History Graph

Daily Weather History Graph

Search for Another Location

Airport or City:

Trip Planner

Search our weather history database for the weather conditions in past years. The results will help you decide how hot, cold, wet, or windy it might be!

Date:

Astronomy

Feb. 02, 2014 Rise Set
Actual Time 7:14 AM EST 5:45 PM EST
Civil Twilight 6:47 AM EST 6:12 PM EST
Nautical Twilight 6:17 AM EST 6:42 PM EST
Astronomical Twilight 5:47 AM EST 7:12 PM EST
Moon 8:48 AM EST (2/2) 9:17 PM EST (2/2)
Length of Visible Light 11h 24m
Length of Day
10h 31m
Waxing Crescent, 11% of the Moon is Illuminated
Feb 2
Waxing Crescent
Feb 6
First Quarter
Feb 14
Full
Feb 22
Last Quarter
Mar 1
New

Hourly Weather History & Observations

Time (EST) Temp. Windchill Dew Point Humidity Pressure Visibility Wind Dir Wind Speed Gust Speed Precip Events Conditions
12:03 AM 42.8 °F 40.1 °F 42.8 °F 100% 30.12 in 1.5 mi WSW 4.6 mph - N/A   Overcast
12:13 AM 42.8 °F 40.1 °F 42.8 °F 100% 30.12 in 1.5 mi SW 4.6 mph - N/A   Overcast
12:18 AM 42.8 °F 40.1 °F 42.8 °F 100% 30.12 in 1.8 mi SW 4.6 mph - N/A   Overcast
12:23 AM 42.8 °F 40.1 °F 42.8 °F 100% 30.12 in 1.8 mi SW 4.6 mph - N/A   Overcast
12:38 AM 42.8 °F 41.1 °F 42.8 °F 100% 30.12 in 1.8 mi SW 3.5 mph - N/A   Overcast
12:43 AM 42.8 °F 41.1 °F 42.8 °F 100% 30.12 in 1.5 mi WSW 3.5 mph - N/A   Overcast
12:53 AM 42.8 °F 41.1 °F 42.8 °F 100% 30.11 in 1.2 mi WSW 3.5 mph - N/A   Overcast
12:58 AM 43.3 °F 41.7 °F 43.2 °F 99% 30.11 in 1.2 mi SW 3.5 mph - N/A   Overcast
1:18 AM 42.8 °F 40.1 °F 42.8 °F 100% 30.10 in 1.8 mi WSW 4.6 mph - N/A   Overcast
1:23 AM 42.8 °F 40.1 °F 42.8 °F 100% 30.10 in 2.0 mi WSW 4.6 mph - N/A   Overcast
1:28 AM 42.8 °F 41.1 °F 42.8 °F 100% 30.10 in 3.0 mi WSW 3.5 mph - N/A   Overcast
1:43 AM 42.8 °F 40.1 °F 42.8 °F 100% 30.10 in 4.0 mi SW 4.6 mph - N/A   Overcast
1:48 AM 42.8 °F 41.1 °F 42.8 °F 100% 30.10 in 5.0 mi SW 3.5 mph - N/A   Overcast
1:58 AM 43.5 °F 40.9 °F 43.3 °F 99% 30.10 in 6.0 mi SW 4.6 mph - N/A   Overcast
2:03 AM 42.8 °F 39.3 °F 42.8 °F 100% 30.09 in 7.0 mi SW 5.8 mph - N/A   Overcast
2:08 AM 42.8 °F 40.1 °F 42.8 °F 100% 30.09 in 7.0 mi SW 4.6 mph - N/A   Overcast
2:28 AM 42.8 °F 40.1 °F 42.8 °F 100% 30.09 in 8.0 mi WSW 4.6 mph - N/A   Overcast
2:43 AM 42.8 °F 40.1 °F 42.8 °F 100% 30.09 in 7.0 mi SW 4.6 mph - N/A   Overcast
2:48 AM 42.8 °F 40.1 °F 42.8 °F 100% 30.09 in 7.0 mi SW 4.6 mph - N/A   Overcast
2:58 AM 43.7 °F 41.1 °F 43.2 °F 98% 30.09 in 7.0 mi SW 4.6 mph - N/A   Overcast
3:23 AM 44.6 °F 41.4 °F 42.8 °F 93% 30.09 in 6.0 mi WSW 5.8 mph - N/A   Overcast
3:28 AM 44.6 °F 41.4 °F 42.8 °F 93% 30.09 in 4.0 mi WSW 5.8 mph - N/A   Overcast
3:33 AM 44.6 °F 41.4 °F 42.8 °F 93% 30.09 in 4.0 mi WSW 5.8 mph - N/A   Overcast
3:48 AM 42.8 °F 39.3 °F 42.8 °F 100% 30.10 in 4.0 mi SW 5.8 mph - N/A   Overcast
3:58 AM 43.7 °F 39.7 °F 43.5 °F 99% 30.10 in 4.0 mi WSW 6.9 mph - N/A   Overcast
4:18 AM 44.6 °F 40.7 °F 42.8 °F 93% 30.10 in 3.0 mi SW 6.9 mph - N/A   Overcast
4:28 AM 44.6 °F 40.7 °F 42.8 °F 93% 30.10 in 5.0 mi WSW 6.9 mph - N/A   Overcast
4:38 AM 44.6 °F 41.4 °F 42.8 °F 93% 30.10 in 4.0 mi WSW 5.8 mph - N/A   Overcast
4:43 AM 44.6 °F 40.7 °F 42.8 °F 93% 30.10 in 2.5 mi SW 6.9 mph - N/A   Overcast
4:48 AM 44.6 °F 40.7 °F 42.8 °F 93% 30.10 in 2.5 mi SW 6.9 mph - N/A   Overcast
4:58 AM 44.6 °F 40.7 °F 42.8 °F 93% 30.10 in 1.8 mi SW 6.9 mph - N/A   Overcast
5:03 AM 44.6 °F 40.7 °F 42.8 °F 93% 30.09 in 1.5 mi SW 6.9 mph - N/A   Overcast
5:13 AM 44.6 °F 40.7 °F 44.6 °F 100% 30.09 in 1.8 mi WSW 6.9 mph - N/A   Overcast
5:28 AM 44.6 °F 41.4 °F 44.6 °F 100% 30.10 in 2.0 mi WSW 5.8 mph - N/A   Overcast
5:38 AM 44.6 °F 40.7 °F 44.6 °F 100% 30.10 in 3.0 mi SW 6.9 mph - N/A   Overcast
5:53 AM 44.6 °F 40.7 °F 44.6 °F 100% 30.10 in 4.0 mi WSW 6.9 mph - N/A   Overcast
5:58 AM 44.2 °F 40.3 °F 43.9 °F 99% 30.10 in 4.0 mi WSW 6.9 mph - N/A   Overcast
6:13 AM 44.6 °F 41.4 °F 44.6 °F 100% 30.10 in 5.0 mi WSW 5.8 mph - N/A   Overcast
6:38 AM 44.6 °F 42.2 °F 44.6 °F 100% 30.10 in 5.0 mi WSW 4.6 mph - N/A   Overcast
6:48 AM 44.6 °F 41.4 °F 44.6 °F 100% 30.10 in 3.0 mi WSW 5.8 mph - N/A   Overcast
6:53 AM 44.6 °F 40.7 °F 42.8 °F 93% 30.10 in 2.5 mi WSW 6.9 mph - N/A   Overcast
6:58 AM 43.9 °F 40.5 °F 43.7 °F 99% 30.10 in 2.0 mi WSW 5.8 mph - N/A   Overcast
7:03 AM 44.6 °F 41.4 °F 42.8 °F 93% 30.09 in 1.5 mi SW 5.8 mph - N/A   Overcast
7:08 AM 44.6 °F 42.2 °F 42.8 °F 93% 30.09 in 1.2 mi WSW 4.6 mph - N/A   Overcast
7:13 AM 44.6 °F 41.4 °F 42.8 °F 93% 30.09 in 0.8 mi WSW 5.8 mph - N/A   Overcast
7:18 AM 44.6 °F 41.4 °F 42.8 °F 93% 30.09 in 0.8 mi WSW 5.8 mph - N/A   Overcast
7:53 AM 44.6 °F 41.4 °F 44.6 °F 100% 30.09 in 0.5 mi WSW 5.8 mph - N/A Fog Fog
7:58 AM 44.1 °F 40.8 °F 43.7 °F 99% 30.09 in 0.5 mi WSW 5.8 mph - N/A Fog Fog
8:23 AM 44.6 °F 41.4 °F 44.6 °F 100% 30.10 in 0.8 mi SW 5.8 mph - N/A   Mist
8:28 AM 44.6 °F 41.4 °F 44.6 °F 100% 30.10 in 1.2 mi SW 5.8 mph - N/A   Overcast
8:33 AM 44.6 °F 41.4 °F 44.6 °F 100% 30.10 in 1.8 mi SW 5.8 mph - N/A   Overcast
8:38 AM 44.6 °F 41.4 °F 44.6 °F 100% 30.10 in 2.5 mi SW 5.8 mph - N/A   Overcast
8:43 AM 44.6 °F 42.2 °F 44.6 °F 100% 30.11 in 4.0 mi SW 4.6 mph - N/A   Overcast
8:53 AM 44.6 °F 41.4 °F 44.6 °F 100% 30.11 in 5.0 mi WSW 5.8 mph - N/A   Overcast
8:58 AM 45.0 °F 41.8 °F 44.8 °F 99% 30.11 in 6.0 mi WSW 5.8 mph - N/A   Overcast
9:58 AM 47.5 °F - 46.0 °F 95% 30.14 in 10.0 mi West 6.9 mph - N/A   Overcast
10:03 AM 48.2 °F - 46.4 °F 93% 30.14 in 10.0 mi West 6.9 mph - N/A   Overcast
10:33 AM 50.0 °F - 46.4 °F 87% 30.15 in 10.0 mi West 10.4 mph - N/A   Mostly Cloudy
10:38 AM 50.0 °F - 46.4 °F 87% 30.14 in 10.0 mi West 8.1 mph - N/A   Mostly Cloudy
10:43 AM 50.0 °F - 46.4 °F 87% 30.14 in 10.0 mi West 6.9 mph - N/A   Scattered Clouds
10:58 AM 51.4 °F - 47.3 °F 86% 30.13 in 10.0 mi SW 9.2 mph - N/A   Scattered Clouds
11:58 AM 57.0 °F - 48.7 °F 74% 30.13 in 10.0 mi WSW 12.7 mph - N/A   Clear
12:58 PM 61.9 °F - 49.6 °F 64% 30.10 in 10.0 mi WSW 12.7 mph - N/A   Clear
1:58 PM 63.9 °F - 50.9 °F 63% 30.07 in 10.0 mi SW 11.5 mph 17.3 mph N/A   Clear
2:58 PM 63.9 °F - 50.0 °F 61% 30.06 in 10.0 mi West 11.5 mph 17.3 mph N/A   Clear
3:58 PM 63.7 °F - 51.4 °F 64% 30.05 in 10.0 mi SSW 6.9 mph - N/A   Clear
4:58 PM 61.9 °F - 51.1 °F 68% 30.06 in 10.0 mi SW 8.1 mph - N/A   Clear
5:58 PM 57.7 °F - 50.4 °F 76% 30.07 in 10.0 mi SSW 5.8 mph - N/A   Clear
6:58 PM 54.7 °F - 49.6 °F 83% 30.08 in 10.0 mi SSW 2.3 mph - N/A   Clear
7:58 PM 49.6 °F - 47.5 °F 92% 30.07 in 10.0 mi SW 2.3 mph - N/A   Clear
8:28 PM 46.4 °F - 46.4 °F 100% 30.06 in 7.0 mi Calm Calm - N/A   Clear
8:33 PM 46.4 °F - 46.4 °F 100% 30.06 in 4.0 mi Calm Calm - N/A   Clear
8:38 PM 46.4 °F - 46.4 °F 100% 30.06 in 3.0 mi Calm Calm - N/A   Clear
8:43 PM 46.4 °F - 46.4 °F 100% 30.06 in 4.0 mi Calm Calm - N/A   Clear
8:48 PM 46.4 °F - 46.4 °F 100% 30.06 in 7.0 mi Calm Calm - N/A   Clear
8:53 PM 46.4 °F - 46.4 °F 100% 30.06 in 10.0 mi Calm Calm - N/A   Clear
8:58 PM 46.6 °F - 45.7 °F 97% 30.07 in 9.0 mi Calm Calm - N/A   Clear
9:13 PM 46.4 °F - 46.4 °F 100% 30.06 in 10.0 mi WSW 1.2 mph - N/A   Clear
9:58 PM 52.9 °F - 50.5 °F 92% 30.07 in 10.0 mi SSW 4.6 mph - N/A   Clear
10:58 PM 50.2 °F - 49.1 °F 96% 30.06 in 10.0 mi WSW 5.8 mph - N/A   Clear
11:58 PM 50.4 °F - 49.5 °F 97% 30.04 in 10.0 mi Calm Calm - N/A   Clear